Regional Weather Roundup
Issued by NWS

Home | Current Version | Previous Version | Graphics & Text | Print | Product List | Glossary On
Versions: 1 2 3 4 5 6 7 8 9 10 11 12 13 14 15 16 17 18 19 20 21 22 23 24 25 26 27 28 29 30 31 32 33 34 35 36 37 38 39 40 41 42 43 44 45 46 47 48 49 50
246
ASUS43 KOAX 192310
RWRNE

WEATHER ROUNDUP FOR NEBRASKA
NATIONAL WEATHER SERVICE OMAHA NE
600 PM CDT SAT MAY 19 2018

NOTES: SATELLITE DATA IS BEING USED TO AUGMENT CLOUD COVER ABOVE
       12000 FEET.
       "FAIR" INDICATES FEW OR NO CLOUDS BELOW 12,000 FEET WITH NO
       SIGNIFICANT WEATHER AND/OR OBSTRUCTIONS TO VISIBILITY.


NEZ001>004-019>022-054>056-200000-
NEBRASKA PANHANDLE

CITY           SKY/WX    TMP DP  RH WIND       PRES   REMARKS
SCOTTSBLUFF    LGT RAIN  45  42  89 N16       30.20R
ALLIANCE       LGT RAIN  43  43 100 N17G25    30.18R
CHADRON        LGT RAIN  45  42  89 NE7       30.24R
GORDON         LGT RAIN  47  44  89 N13       30.18S
KIMBALL        RAIN      43  42  95 N12       30.19S
SIDNEY         LGT RAIN  43  41  93 N17G28    30.17S
$$

NEZ057>060-069>072-079>082-200000-
SOUTHWEST NEBRASKA

CITY           SKY/WX    TMP DP  RH WIND       PRES   REMARKS
NORTH PLATTE   LGT RAIN  50  47  89 NE15G29   30.04R FOG
IMPERIAL       LGT RAIN  48  48 100 N21G30    30.08R
LEXINGTON      CLOUDY    51  49  90 NE16      30.02R
MCCOOK         LGT RAIN  50  49  96 NE14      30.02
OGALLALA       LGT RAIN  48  46  95 N17G28    30.10R
$$

NEZ005>010-023>029-035>040-094-200000-
NORTH CENTRAL NEBRASKA

CITY           SKY/WX    TMP DP  RH WIND       PRES   REMARKS
VALENTINE      LGT RAIN  53  48  83 N6        30.11F
AINSWORTH      LGT RAIN  51  50  95 N16       30.08S
BROKEN BOW     CLOUDY    50  47  89 N18G33    30.02S
O`NEILL        RAIN      53  52  97 N7        30.05S
ORD            LGT RAIN  50  49  96 N13       30.02S FOG
THEDFORD       CLOUDY    50  47  91 N15G23    30.08R
$$

NEZ041-046>049-061>064-073>077-083>087-200000-
SOUTH CENTRAL NEBRASKA

CITY           SKY/WX    TMP DP  RH WIND       PRES   REMARKS
GRAND ISLAND   CLOUDY    53  48  83 N18       30.02R
AURORA         CLOUDY    52  51  97 N17       30.01R
HASTINGS       CLOUDY    53  49  86 NE18      30.01R
HEBRON         CLOUDY    62  55  80 N10       29.96R
HOLDREGE       CLOUDY    49  49  97 NE20      30.01R FOG
KEARNEY        CLOUDY    51  47  86 N18       30.02R
YORK           CLOUDY    54  54 100 N15G24    29.99R
$$

NEZ011>018-030>034-042>045-200000-
NORTHEAST NEBRASKA

CITY           SKY/WX    TMP DP  RH WIND       PRES   REMARKS
NORFOLK        CLOUDY    53  51  93 N9        30.00R
ALBION         CLOUDY    52  50  93 N8        30.02R
BLAIR          CLOUDY    59  55  84 N10       29.96R
FREMONT        CLOUDY    60  53  75 N10       29.99R
TEKAMAH        CLOUDY    60  54  80 N12       29.96S
WAYNE          CLOUDY    55  54  96 N9        30.01R
$$

NEZ050>053-065>068-078-088>093-200000-
SOUTHEAST NEBRASKA

CITY           SKY/WX    TMP DP  RH WIND       PRES   REMARKS
LINCOLN        CLOUDY    61  53  75 N10       29.99R
OMAHA EPPLEY   CLOUDY    63  55  75 NW14      29.95R
BEATRICE       MOSUNNY   67  56  68 N13       29.95S
FALLS CITY     PTSUNNY   74  57  55 N12       29.88R
NEBRASKA CITY  MOSUNNY   71  58  64 N10       29.94R
PLATTSMOUTH    CLOUDY    65  56  72 N7        29.96R
$$

NEZ044-045-051>053-067-200000-
OMAHA AREA

CITY           SKY/WX    TMP DP  RH WIND       PRES   REMARKS
OMAHA EPPLEY   CLOUDY    63  55  75 NW14      29.95R
BLAIR          CLOUDY    59  55  84 N10       29.96R
FREMONT        CLOUDY    60  53  75 N10       29.99R
MILLARD        CLOUDY    62  55  78 N6        29.97R
OFFUTT AFB     CLOUDY    64  56  75 N10       29.94R
PLATTSMOUTH    CLOUDY    65  56  72 N7        29.96R
WAHOO          CLOUDY    62  51  66 N15       29.98R
$$




USA.gov is the U.S. government's official web portal to all federal, state and local government web resources and services.